[[{"header":{"parameterUnit":"m.s-1","parameterCategory":1,"la1":30.2991,"la2":30.254,"lo1":-89.0895,"lo2":-89.0444,"dy":0.0017,"dx":0.0017,"nx":28,"ny":28,"refTime":"2025-04-03T09:00:00:Z","depth":0,"parameterNumber":2,"parameterNumberName":"U-component_of_WINDS"},"data":[0,0,0,0,0,0,0,0,0,0,0,0,0,0,0,0,0,0,0,0,0,0,0,0,0,0,0,0,0,0,0,0,0,0,0,0,0,0,0,0,0,0,0,0,0,0,0,0,0,0,0,0,0,0,0,0,0,0,-3.9798,-3.9799,0,-3.9947,-3.9949,-3.9951,-3.9996,-3.9995,-3.9995,-3.9994,-4.0148,-4.0153,-4.0158,0,0,0,0,0,0,0,0,0,0,0,0,0,-3.9553,-3.9557,-3.9797,-3.9799,-3.9801,-3.9947,-3.9949,-3.9951,-3.9996,-3.9995,-3.9994,-3.9994,-4.0147,-4.0152,-4.0158,0,0,0,0,0,0,0,0,0,0,0,0,0,-3.9676,-3.9558,-3.9797,-3.9841,-3.9847,-3.9947,-3.9949,-3.9952,-3.9996,-3.9995,-3.9994,-3.9993,-4.0145,-4.0152,-4.0159,-4.0226,0,0,-4.0181,-4.0184,0,0,0,0,0,0,0,0,-3.9669,-3.9685,-3.9833,-3.9838,-3.9845,-3.9952,-3.992,-4.0044,-3.9997,-3.994,-3.9994,-3.9993,-4.0084,-4.0096,-4.0127,-4.0233,-4.024,-4.0182,-4.0186,-4.0189,-4.0191,0,0,0,0,0,0,0,-3.9661,-3.9679,-3.9857,-3.9835,-3.9842,-3.9854,-3.9871,-3.9943,-4.0016,-3.9945,-3.9948,-3.9965,-4.0087,-4.012,-4.0131,-4.0242,-4.0181,-4.0188,-4.0192,-4.0195,-4.0413,-4.0414,0,0,0,0,0,0,-3.9644,-3.9672,-3.9852,-3.9861,-3.9752,-3.986,-3.9878,-3.9919,-4.0016,-4.0029,-3.9966,-3.9967,-4.0108,-4.0122,-4.0136,-4.0221,-4.0189,-4.0196,-4.02,-4.0411,-4.0413,-4.0415,0,0,0,0,0,0,-3.9639,-3.966,-3.9846,-3.9768,-3.9792,-3.9865,-3.991,-3.9922,-3.9955,-4.0032,-4.0045,-3.9986,-4.0108,-4.0126,-4.0204,-4.0227,-4.0199,-4.0206,-4.041,-4.0412,-4.0414,-4.0392,0,0,0,0,0,0,-3.9632,-3.9658,-3.9683,-3.9768,-3.9796,-3.991,-3.9912,-3.9926,-3.9967,-3.9969,-4.0054,-4.0067,-4.0108,-4.0193,-4.0211,-4.0237,-4.0211,-4.0408,-4.0411,-4.0413,-4.0391,-4.0393,-4.0395,0,0,0,0,0,-3.9623,-3.9671,-3.9684,-3.9706,-3.983,-3.9911,-3.9928,-3.9973,-3.9969,-3.9995,-4.0045,-4.0064,-4.0222,-4.02,-4.0221,-4.025,-4.0407,-4.041,-4.0413,-4.039,-4.0393,-4.0395,0,0,0,0,0,0,-3.9587,-3.9683,-3.9699,-3.9776,-3.9835,-3.9919,-3.9953,-3.9975,-4.0037,-4.0037,-4.0092,-4.011,-4.0184,-4.0225,-4.0199,-4.032,-4.0315,-4.0323,-4.029,-4.0294,-4.0296,-4.0284,-4.0217,0,0,0,0,0,-3.9589,-3.9646,-3.9727,-3.9787,-3.9816,-3.988,-3.9917,-3.9948,-4.0011,-4.0037,-4.0092,-4.0154,-4.0218,-4.0258,-4.0321,-4.0398,-4.0417,-4.0428,-4.043,-4.0431,-4.0437,-4.0481,-4.0487,-4.0426,-4.0426,-4.0425,0,0,-3.9591,-3.9651,-3.9684,-3.9782,-3.9831,-3.989,-3.99,-3.9962,-4.0007,-4.0046,-4.0123,-4.0166,-4.0239,-4.0316,-4.0353,-4.0352,-4.0458,-4.0436,-4.0436,-4.0441,-4.0485,-4.0491,-4.0496,-4.0428,-4.0427,-4.0427,0,0,-3.9627,-3.9677,-3.9733,-3.9783,-3.9858,-3.99,-3.9914,-3.9995,-4.0025,-4.0103,-4.0134,-4.0188,-4.0297,-4.0347,-4.0387,-4.0444,-4.0464,-4.0463,-4.0473,-4.0516,-4.0521,-4.0525,-4.0545,-4.0552,-4.0469,-4.0469,-4.0469,0,-3.962,-3.971,-3.9759,-3.982,-3.9862,-3.9901,-3.9959,-4.0005,-4.0097,-4.0125,-4.0124,-4.0261,-4.0313,-4.0403,-4.0417,-4.0448,-4.0466,-4.0453,-4.0516,-4.0521,-4.0526,-4.0546,-4.0553,-4.0468,-4.0468,-4.0468,-4.0468,0,-3.9699,-3.9761,-3.9798,-3.9885,-3.9932,-3.9991,-4.0049,-4.0091,-4.0118,-4.0161,-4.024,-4.0304,-4.0381,-4.0405,-4.0432,-4.0499,-4.0497,-4.0505,-4.0501,-4.053,-4.055,-4.0558,-4.0467,-4.0467,-4.0467,-4.0468,0,0,-3.9714,-3.9829,-3.9842,-3.9882,-3.9969,-4.0018,-4.0079,-4.0154,-4.0189,-4.0252,-4.0305,-4.0397,-4.0405,-4.0451,-4.0484,-4.0522,-4.0563,-4.0526,-4.0528,-4.053,-4.0641,-4.0633,-4.0641,-4.0577,-4.0579,-4.058,-4.0635,0,-3.976,-3.9869,-3.9916,-4.0005,-4.0063,-4.0102,-4.0156,-4.0215,-4.0257,-4.0314,-4.0361,-4.0425,-4.0431,-4.0459,-4.0498,-4.0549,-4.0586,-4.0546,-4.0627,-4.0629,-4.0606,-4.0652,-4.0643,-4.0692,-4.0643,-4.0644,-4.0645,0,-3.9827,-3.989,-3.9984,-4.0065,-4.0091,-4.0138,-4.0211,-4.0264,-4.0333,-4.0362,-4.0413,-4.0445,-4.0512,-4.0505,-4.0598,-4.057,-4.0607,-4.0637,-4.064,-4.0648,-4.0638,-4.066,-4.0708,-4.0715,-4.0658,-4.0657,-4.0656,0,-3.9827,-3.9936,-4.0007,-4.004,-4.0136,-4.0168,-4.021,-4.0278,-4.032,-4.0385,-4.0413,-4.0485,-4.0524,-4.0579,-4.063,-4.062,-4.0719,-4.0715,-4.0744,-4.0743,-4.0761,-4.0759,-4.0815,-4.0787,-4.0787,-4.0787,-4.0786,0,-3.9873,-3.9929,-4.0008,-4.0051,-4.0116,-4.017,-4.0233,-4.0277,-4.0338,-4.0391,-4.043,-4.0479,-4.0544,-4.0602,-4.0643,-4.0714,-4.0732,-4.0757,-4.0767,-4.0753,-4.0749,-4.0776,-4.0774,-4.0789,-4.0788,-4.0788,-4.0787,0,-3.9883,-3.9939,-4.0018,-4.0103,-4.0126,-4.0169,-4.0242,-4.0286,-4.0331,-4.0398,-4.0417,-4.0488,-4.0559,-4.0615,-4.0708,-4.0735,-4.081,-4.0822,-4.0786,-4.0791,-4.0816,-4.0813,-4.089,-4.0903,-4.0866,-4.0867,-4.0867,0,-3.9908,-3.9952,-4.0041,-4.0079,-4.012,-4.0182,-4.0226,-4.0282,-4.0326,-4.0408,-4.0443,-4.0516,-4.0577,-4.0688,-4.0748,-4.082,-4.0833,-4.0855,-4.0844,-4.0829,-4.0833,-4.0829,-4.0834,-4.0856,-4.0856,-4.0856,-4.0856,0,-3.9945,-3.9971,-4.0032,-4.0103,-4.0154,-4.0213,-4.0273,-4.0302,-4.0369,-4.0417,-4.0489,-4.0537,-4.0632,-4.0704,-4.0782,-4.0826,-4.0853,-4.086,-4.087,-4.0855,-4.0833,-4.0845,-4.0788,-4.0857,-4.0857,-4.0857,-4.0857,-4.0857,-3.9963,-4.0004,-4.0074,-4.0141,-4.0192,-4.0247,-4.0293,-4.0344,-4.0405,-4.0486,-4.0516,-4.059,-4.066,-4.0767,-4.0812,-4.0872,-4.0874,-4.0889,-4.0893,-4.0895,-4.0893,-4.0824,-4.0886,-4.0886,-4.0886,-4.0886,-4.0886,0,-4.0002,-4.0049,-4.011,-4.0193,-4.0246,-4.0266,-4.0334,-4.0377,-4.0442,-4.0505,-4.0564,-4.0648,-4.0719,-4.0786,-4.086,-4.0895,-4.0909,-4.0913,-4.091,-4.092,-4.0887,-4.087,-4.09,-4.09,-4.09,-4.09,-4.09,-4.09,-4.0028,-4.0099,-4.0133,-4.023,-4.0277,-4.035,-4.0387,-4.0439,-4.0489,-4.058,-4.0639,-4.0682,-4.0747,-4.0826,-4.0893,-4.0911,-4.0936,-4.0936,-4.0957,-4.0924,-4.0922,-4.092,-4.0905,-4.0941,-4.0942,-4.0985,-4.0986,-4.0986]},{"header":{"parameterUnit":"m.s-1","parameterCategory":1,"la1":30.2991,"la2":30.254,"lo1":-89.0895,"lo2":-89.0444,"dy":0.0017,"dx":0.0017,"nx":28,"ny":28,"refTime":"2025-04-03T09:00:00:Z","depth":0,"parameterNumber":3,"parameterNumberName":"V-component_of_WINDS"},"data":[0,0,0,0,0,0,0,0,0,0,0,0,0,0,0,0,0,0,0,0,0,0,0,0,0,0,0,0,0,0,0,0,0,0,0,0,0,0,0,0,0,0,0,0,0,0,0,0,0,0,0,0,0,0,0,0,0,0,6.1179,6.1181,0,6.13,6.1301,6.1303,6.129,6.1288,6.1286,6.1284,6.1406,6.1411,6.1416,0,0,0,0,0,0,0,0,0,0,0,0,0,6.0939,6.0944,6.1179,6.1181,6.1182,6.13,6.1301,6.1303,6.129,6.1288,6.1285,6.1283,6.1405,6.1411,6.1417,0,0,0,0,0,0,0,0,0,0,0,0,0,6.105,6.0945,6.1179,6.119,6.1192,6.1299,6.1301,6.1303,6.1291,6.1288,6.1285,6.1282,6.1403,6.141,6.1417,6.1521,0,0,6.144,6.1444,0,0,0,0,0,0,0,0,6.1044,6.1059,6.1187,6.1189,6.1192,6.1277,6.1261,6.1376,6.1291,6.1253,6.1284,6.1281,6.1365,6.1376,6.1405,6.1527,6.1532,6.1441,6.1446,6.1449,6.1451,0,0,0,0,0,0,0,6.1036,6.1053,6.1227,6.1189,6.1192,6.1189,6.1202,6.1283,6.1324,6.1256,6.1256,6.127,6.1366,6.1397,6.1407,6.1534,6.1441,6.1448,6.1452,6.1455,6.175,6.1754,0,0,0,0,0,0,6.1026,6.1047,6.1223,6.1231,6.1109,6.1196,6.121,6.1252,6.1323,6.1331,6.1272,6.1269,6.1386,6.1399,6.1412,6.1541,6.1449,6.1456,6.146,6.1747,6.1751,6.1755,0,0,0,0,0,0,6.102,6.1041,6.1218,6.1139,6.1161,6.1203,6.1251,6.1256,6.1288,6.1335,6.1342,6.1297,6.1384,6.1401,6.1495,6.1544,6.1459,6.1466,6.1743,6.1748,6.1753,6.1797,0,0,0,0,0,0,6.1014,6.104,6.1079,6.114,6.1165,6.1299,6.1254,6.1261,6.1301,6.1297,6.136,6.1367,6.1383,6.1484,6.1502,6.1553,6.1472,6.1739,6.1746,6.1751,6.1791,6.1803,6.1813,0,0,0,0,0,6.1005,6.1085,6.1081,6.1102,6.1215,6.1302,6.1317,6.1334,6.1305,6.1345,6.1376,6.1365,6.1536,6.1493,6.1514,6.1568,6.1736,6.1744,6.1751,6.1786,6.1801,6.1812,0,0,0,0,0,0,6.1028,6.1093,6.1089,6.1192,6.1242,6.13,6.1351,6.1347,6.1406,6.1401,6.1419,6.1433,6.1529,6.1557,6.1509,6.1674,6.1632,6.1644,6.1652,6.1666,6.1676,6.1668,6.1478,0,0,0,0,0,6.1045,6.111,6.1163,6.1249,6.1274,6.1308,6.1347,6.1356,6.1408,6.1429,6.1466,6.1518,6.1583,6.1625,6.1688,6.1795,6.181,6.1843,6.1853,6.1862,6.1873,6.1935,6.1951,6.1779,6.1779,6.1779,0,0,6.1081,6.1125,6.1164,6.1255,6.1294,6.1362,6.1326,6.1398,6.1449,6.144,6.1532,6.1561,6.1619,6.1721,6.1768,6.1748,6.1923,6.1871,6.1878,6.1884,6.1944,6.196,6.1975,6.1784,6.1784,6.1783,0,0,6.1181,6.122,6.1297,6.1338,6.1399,6.1422,6.1441,6.15,6.152,6.1613,6.1608,6.1669,6.178,6.1823,6.1859,6.1979,6.1973,6.1999,6.2055,6.2116,6.2129,6.2141,6.2187,6.2203,6.2009,6.2009,6.2009,0,6.1218,6.132,6.1337,6.1411,6.1452,6.1448,6.1527,6.1566,6.1644,6.1673,6.1649,6.1792,6.183,6.1944,6.1974,6.2002,6.2025,6.1992,6.2126,6.2138,6.215,6.2194,6.2211,6.2012,6.2012,6.2011,6.2011,0,6.1364,6.1435,6.1489,6.1567,6.1614,6.169,6.1719,6.1765,6.177,6.1796,6.1892,6.1938,6.2012,6.2039,6.2044,6.2155,6.2141,6.2122,6.208,6.2169,6.2211,6.2227,6.2016,6.2015,6.2014,6.2014,0,0,6.1481,6.1569,6.159,6.1626,6.1695,6.175,6.1827,6.19,6.194,6.1994,6.2061,6.2156,6.214,6.2181,6.2191,6.2244,6.2341,6.2219,6.2221,6.2242,6.2469,6.2485,6.2504,6.2336,6.2339,6.2342,6.2465,0,6.1591,6.1728,6.1746,6.1868,6.1935,6.1933,6.2,6.205,6.2077,6.2138,6.2167,6.2236,6.2207,6.2233,6.2285,6.2318,6.2387,6.2309,6.24,6.2403,6.2388,6.2525,6.2541,6.2655,6.2481,6.2483,6.2485,0,6.1737,6.1798,6.1926,6.1989,6.2018,6.2078,6.2148,6.2206,6.2263,6.2279,6.2327,6.2331,6.2412,6.2366,6.248,6.2427,6.2465,6.2487,6.2492,6.2502,6.2451,6.2542,6.2692,6.271,6.2511,6.2509,6.2507,0,6.1814,6.1927,6.202,6.2051,6.2125,6.2168,6.2201,6.2256,6.2299,6.236,6.239,6.2458,6.2497,6.2551,6.2575,6.2539,6.2688,6.2643,6.2705,6.2704,6.2737,6.2735,6.2898,6.2758,6.2758,6.2757,6.2757,0,6.1935,6.2015,6.2056,6.2113,6.2203,6.2224,6.2313,6.2344,6.2393,6.2457,6.2458,6.2519,6.2545,6.261,6.2628,6.2721,6.2738,6.2754,6.2758,6.2755,6.2754,6.2782,6.2776,6.2762,6.2761,6.276,6.2759,0,6.2037,6.2067,6.2169,6.2232,6.225,6.2313,6.2367,6.2424,6.245,6.2531,6.2552,6.2593,6.267,6.2698,6.2791,6.2804,6.2912,6.2909,6.2893,6.2895,6.2956,6.2951,6.3145,6.3173,6.3012,6.3013,6.3014,0,6.2114,6.2176,6.2246,6.229,6.2324,6.2394,6.244,6.2463,6.251,6.2582,6.263,6.2706,6.2769,6.2892,6.2931,6.3002,6.3002,6.3065,6.3013,6.3009,6.3007,6.3004,6.3012,6.3075,6.3077,6.3078,6.3079,0,6.2248,6.2261,6.2327,6.2399,6.2453,6.2511,6.2567,6.2602,6.2634,6.2687,6.2767,6.2815,6.2911,6.2988,6.3063,6.3097,6.3095,6.3095,6.3114,6.3113,6.3103,6.3112,6.2923,6.3091,6.309,6.3089,6.3089,6.3088,6.2342,6.2398,6.2457,6.2531,6.2576,6.2629,6.2686,6.2721,6.2787,6.2868,6.2877,6.2963,6.3022,6.3121,6.3159,6.3227,6.321,6.3236,6.3244,6.325,6.3257,6.309,6.324,6.324,6.324,6.3239,6.3239,0,6.2479,6.2518,6.2586,6.2665,6.2724,6.2717,6.2779,6.2829,6.2905,6.2959,6.3022,6.3114,6.3189,6.3235,6.3311,6.3357,6.3358,6.3376,6.3374,6.3383,6.3265,6.3243,6.3374,6.3374,6.3374,6.3374,6.3374,6.3374,6.2558,6.2654,6.2674,6.2792,6.283,6.2915,6.2952,6.3001,6.3046,6.3149,6.3212,6.3242,6.3294,6.3374,6.3443,6.3455,6.3484,6.3504,6.3515,6.3404,6.3391,6.3377,6.3357,6.3509,6.351,6.3627,6.3628,6.3629]}]]